Location: Blackwall
(51.5097°N, 0.0016°W)
Time: 23:29:44
(UTC+00:00)

Cosmos 2219 Rocket - Pass Details

Date: 15 May 2026
Orbit: 825 x 846 km, 71.0° (Epoch: 11 June)

Event Time Altitude Azimuth Distance (km) Brightness Sun altitude
Rises 23:41:10 0° 317° (NW) 3,407 6.2 -19.4°
Reaches altitude 10° 23:44:50 10° 293° (WNW) 2,470 4.9 -19.4°
Maximum altitude 23:47:34 14° 264° (W) 2,202 4.3 -19.4°
Enters shadow 23:49:51 11° 239° (WSW) 2,387 4.3 -19.4°
